North Platte, NE

11:51 PM CST on January 20, 2017 (GMT -0600)
North Platte Regional Airport Lee Bird Field

Weather History for KLBF - January, 2013

Change the Weather History Date:

Thursday, January 10, 2013

  Actual Average Record
Temperature  
Mean Temperature 36 °F 25 °F  
Max Temperature 39 °F 39 °F 73 °F (1990)
Min Temperature 32 °F 11 °F -17 °F (1982)
Degree Days  
Heating Degree Days 29 40  
Month to date heating degree days 406 405  
Since 1 July heating degree days 3121 3185  
Cooling Degree Days 0 0  
Month to date cooling degree days 0 0  
Year to date cooling degree days 0 0  
Moisture  
Dew Point 31 °F    
Average Humidity 82    
Maximum Humidity 100    
Minimum Humidity 64    
Precipitation  
Precipitation 0.00 in 0.01 in 0.22 in (1892)
Month to date precipitation T 0.12  
Year to date precipitation T 0.12  
Snow  
Snow 0.00 in 0.20 in 2.80 in (1963)
Month to date snowfall 0.1 1.6  
Since 1 July snowfall 8.0 12.4  
Snow Depth 0.00 in    
Sea Level Pressure  
Sea Level Pressure 29.79 in    
Wind  
Wind Speed 8 mph (SSE)    
Max Wind Speed 15 mph    
Max Gust Speed 20 mph    
Visibility 6 miles    
Events      
T = Trace of Precipitation, MM = Missing Value Source: NWS Daily Summary

Daily Weather History Graph

Daily Weather History Graph

Search for Another Location

Airport or City:

Trip Planner

Search our weather history database for the weather conditions in past years. The results will help you decide how hot, cold, wet, or windy it might be!

Date:

Astronomy

Jan. 10, 2013 Rise Set
Actual Time 8:07 AM CST 5:33 PM CST
Civil Twilight 7:36 AM CST 6:04 PM CST
Nautical Twilight 7:02 AM CST 6:38 PM CST
Astronomical Twilight 6:29 AM CST 7:11 PM CST
Moon 6:48 AM CST (1/10) 4:43 PM CST (1/10)
Length of Visible Light 10h 27m
Length of Day
9h 26m
Waning Crescent, 2% of the Moon is Illuminated
Jan 10
Waning Crescent
Jan 11
New
Jan 18
First Quarter
Jan 26
Full
Feb 3
Last Quarter

Hourly Weather History & Observations

Time (CST) Temp. Windchill Dew Point Humidity Pressure Visibility Wind Dir Wind Speed Gust Speed Precip Events Conditions
12:53 AM 36.0 °F 27.5 °F 27.0 °F 70% 30.21 in 10.0 mi South 12.7 mph - N/A   Clear
1:53 AM 35.1 °F 26.9 °F 26.1 °F 70% 30.19 in 10.0 mi South 11.5 mph - N/A   Clear
2:53 AM 34.0 °F 27.2 °F 25.0 °F 70% 30.17 in 10.0 mi South 8.1 mph - N/A   Clear
3:53 AM 34.0 °F 27.2 °F 25.0 °F 70% 30.14 in 10.0 mi South 8.1 mph - N/A   Clear
4:53 AM 34.0 °F 27.2 °F 23.0 °F 64% 30.11 in 10.0 mi South 8.1 mph - N/A   Clear
5:53 AM 36.0 °F 30.3 °F 24.1 °F 62% 30.08 in 10.0 mi SSE 6.9 mph - N/A   Mostly Cloudy
6:53 AM 37.0 °F 34.5 °F 26.1 °F 65% 30.06 in 10.0 mi SSE 3.5 mph - N/A   Overcast
7:53 AM 37.0 °F 31.0 °F 27.0 °F 67% 30.06 in 10.0 mi South 8.1 mph - N/A   Overcast
8:31 AM 37.4 °F 32.1 °F 26.6 °F 65% 29.98 in 10.0 mi South 6.9 mph - N/A   Overcast
8:53 AM 37.0 °F 32.4 °F 27.0 °F 67% 30.01 in 10.0 mi South 5.8 mph - N/A   Overcast
9:51 AM 37.4 °F 31.4 °F 28.4 °F 70% 29.93 in 10.0 mi South 8.1 mph - N/A   Overcast
9:53 AM 37.9 °F 30.9 °F 28.9 °F 70% 29.97 in 10.0 mi South 10.4 mph 17.3 mph N/A   Overcast
10:53 AM 37.0 °F 31.6 °F 32.0 °F 82% 29.94 in 10.0 mi South 6.9 mph - N/A   Overcast
11:12 AM 37.4 °F 31.4 °F 30.2 °F 75% 29.88 in 10.0 mi SSE 8.1 mph - N/A   Overcast
11:53 AM 37.0 °F 31.6 °F 32.0 °F 82% 29.89 in 10.0 mi South 6.9 mph - N/A   Overcast
12:53 PM 37.9 °F 31.5 °F 33.1 °F 83% 29.80 in 10.0 mi SE 9.2 mph - N/A   Overcast
1:05 PM 37.4 °F 30.3 °F 33.8 °F 87% 29.74 in 10.0 mi SSE 10.4 mph - N/A   Overcast
1:53 PM 37.0 °F 29.8 °F 32.0 °F 82% 29.77 in 10.0 mi SSE 10.4 mph - N/A   Overcast
2:53 PM 37.0 °F 30.4 °F 32.0 °F 82% 29.75 in 10.0 mi South 9.2 mph - N/A   Overcast
3:53 PM 36.0 °F 28.0 °F 32.0 °F 86% 29.73 in 10.0 mi South 11.5 mph - N/A   Overcast
4:53 PM 34.0 °F 25.5 °F 32.0 °F 92% 29.74 in 6.0 mi South 11.5 mph - N/A   Overcast
5:07 PM 33.8 °F 24.3 °F 32.0 °F 93% 29.68 in 6.0 mi South 13.8 mph - N/A   Overcast
5:53 PM 34.0 °F 28.0 °F 32.0 °F 92% 29.71 in 4.0 mi South 6.9 mph - N/A   Overcast
6:53 PM 34.0 °F 26.6 °F 32.0 °F 92% 29.68 in 2.0 mi SSE 9.2 mph - N/A   Overcast
7:11 PM 33.8 °F 27.7 °F 33.8 °F 100% 29.63 in 1.5 mi SSE 6.9 mph - N/A   Overcast
7:45 PM 33.8 °F 27.0 °F 33.8 °F 100% 29.62 in 3.0 mi South 8.1 mph - N/A   Overcast
7:53 PM 34.0 °F 28.8 °F 34.0 °F 100% 29.66 in 3.0 mi South 5.8 mph - N/A   Overcast
8:09 PM 33.8 °F 27.0 °F 33.8 °F 100% 29.62 in 2.5 mi South 8.1 mph - N/A   Overcast
8:20 PM 33.8 °F 27.0 °F 33.8 °F 100% 29.61 in 1.5 mi South 8.1 mph - N/A   Overcast
8:29 PM 33.8 °F 27.0 °F 33.8 °F 100% 29.60 in 1.2 mi SSE 8.1 mph - N/A   Overcast
8:41 PM 35.6 °F 29.9 °F 33.8 °F 93% 29.60 in 2.0 mi SSE 6.9 mph - N/A   Overcast
8:53 PM 35.1 °F 29.3 °F 33.1 °F 92% 29.64 in 4.0 mi SSE 6.9 mph - N/A   Overcast
9:35 PM 35.6 °F 30.7 °F 33.8 °F 93% 29.58 in 2.0 mi SSE 5.8 mph - N/A   Overcast
9:53 PM 34.0 °F 28.8 °F 34.0 °F 100% 29.62 in 1.5 mi South 5.8 mph - N/A   Overcast
10:08 PM 33.8 °F 27.0 °F 33.8 °F 100% 29.57 in 2.0 mi SSE 8.1 mph - N/A   Overcast
10:44 PM 33.8 °F 27.7 °F 33.8 °F 100% 29.57 in 3.0 mi SSE 6.9 mph - N/A   Overcast
10:53 PM 34.0 °F 28.8 °F 33.1 °F 96% 29.61 in 3.0 mi SSE 5.8 mph - N/A   Overcast
11:27 PM 33.8 °F 25.8 °F 33.8 °F 100% 29.55 in 2.0 mi South 10.4 mph - N/A   Overcast
11:34 PM 33.8 °F 25.3 °F 33.8 °F 100% 29.55 in 1.5 mi SSE 11.5 mph - N/A   Overcast
11:43 PM 33.8 °F 26.4 °F 33.8 °F 100% 29.55 in 1.2 mi SSE 9.2 mph 18.4 mph N/A   Overcast
11:53 PM 34.0 °F 26.6 °F 33.1 °F 96% 29.59 in 1.2 mi SSE 9.2 mph - N/A   Overcast